Location: Poinsettia Observatory
(32.9673°N, 117.0346°W)
Time: 19:11:19
(UTC-07:00)

Daily predictions for brighter satellites

Satellite Brightness Start Highest point End
(mag) Time Altitude Azimuth Time Altitude Azimuth Time Altitude Azimuth
Cosmos 2279 Rocket 4.0 20:17:09 10° S 20:23:17 70° E 20:29:26 10° N
Cosmos 2058 Rocket 3.1 20:19:39 10° N 20:24:05 79° E 20:28:26 10° S
NOSS 2-3 (E) 3.6 20:25:58 10° SSW 20:30:21 70° ESE 20:35:14 10° NE
Cosmos 2263 Rocket 2.2 20:26:07 10° SSW 20:31:46 73° ESE 20:37:25 10° NNE
Cosmos 1603 3.8 20:31:36 10° NNW 20:37:18 69° ENE 20:43:00 10° SSE
YAOGAN 6 2.8 20:35:49 10° S 20:39:23 73° W 20:42:54 10° NNW
Cosmos 2228 3.8 20:35:12 10° NNW 20:39:30 57° W 20:43:48 10° S
ASTRO E2 4.5 20:36:41 10° WSW 20:39:38 20° SSW 20:42:35 10° SSE
ATLAS 2AS CENTAUR R/B 3.8 20:34:07 10° SSE 20:40:11 27° ESE 20:46:32 10° NE
Cosmos 1707 3.1 20:36:42 10° SSE 20:40:22 44° E 20:44:04 10° NNE
Cosmos 1953 2.7 20:36:34 10° N 20:40:23 45° E 20:44:14 10° SSE
Envisat 4.0 20:36:01 10° S 20:40:52 46° W 20:45:45 10° NNW
Cosmos 2180 Rocket 4.5 20:34:46 10° S 20:40:57 79° E 20:47:07 10° N
SJ-11-01 4.4 20:40:05 10° SSE 20:44:46 64° ENE 20:49:28 10° N
Cosmos 1655 Rocket 4.0 20:38:49 10° N 20:45:05 72° E 20:51:16 10° SSE
Cosmos 972 Rocket 4.2 20:42:37 10° SSW 20:47:32 72° WNW 20:52:27 10° N
Iridium 4 Rocket 4.5 20:48:53 10° SSE 20:54:01 34° E 20:58:55 10° NNE
Hubble Space Telescope 1.7 20:51:16 10° WSW 20:54:59 32° SSW 20:57:42 16° SE
Cosmos 1378 3.6 20:51:23 10° SSW 20:55:04 64° W 20:58:46 10° N
Lacrosse 5 2.0 20:53:13 10° SSW 20:58:05 50° SE 21:02:58 10° NE
Cosmos 1238 Rocket 4.0 21:02:36 15° E 21:02:36 15° E 21:04:22 10° NE
Cosmos 1400 Rocket 2.7 21:00:34 10° S 21:04:38 79° E 21:08:39 10° N
Cosmos 2266 Rocket 4.3 20:59:51 10° N 21:06:06 53° E 21:11:20 14° SSE
USA 186 3.8 21:03:19 10° SSW 21:06:14 28° W 21:09:04 10° NW
CZ-3 Stage 3 3.1 21:03:33 10° WSW 21:06:35 65° S 21:18:45 10° E
Aureole 1 Rocket 2.4 21:07:11 13° S 21:09:36 48° ESE 21:12:49 10° NNE
BREEZE-M R/B 2.4 21:09:37 10° NW 21:12:38 48° NE 21:13:38 28° E
USA 215 3.3 21:09:21 16° SE 21:14:46 80° SW 21:21:22 10° NW
Cosmos 468 4.5 21:10:39 10° SSW 21:15:57 80° ESE 21:21:19 10° NNE
Spot 2 Rocket 3.5 21:11:32 11° S 21:16:22 82° WSW 21:21:27 10° NNW
Cosmos 1452 Rocket 3.8 21:11:26 10° N 21:16:35 51° ENE 21:19:48 22° SE
Cosmos 1420 Rocket 4.4 21:14:55 10° N 21:19:55 47° ENE 21:22:46 24° SE
Cosmos 2056 Rocket 4.3 21:15:53 10° NNW 21:20:51 48° WSW 21:25:51 10° S
Cosmos 1943 3.2 21:15:34 10° NNW 21:21:15 87° WSW 21:25:24 19° SSE
ERS-2 2.9 21:19:30 12° S 21:22:42 48° W 21:26:17 10° NNW
H-2A R/B 2.5 21:23:43 24° SE 21:26:36 47° ENE 21:31:43 10° N
Cosmos 1470 3.8 21:23:12 10° NNW 21:26:55 43° W 21:30:34 10° SSW
Aurora 2 Rocket 4.5 21:22:31 10° SW 21:28:43 36° SSE 21:34:18 19° ESE
SL-8 R/B 3.6 21:30:29 10° SW 21:35:16 70° SE 21:40:05 10° NE
ARGOS 3.1 21:33:07 24° SSE 21:36:27 76° ENE 21:41:53 10° N
Cosmos 1607 4.0 21:32:19 10° NNW 21:38:42 84° WSW 21:42:21 27° SSE
Cosmos 1844 4.2 21:36:34 27° SSE 21:38:54 39° ESE 21:44:10 10° NE
OAO 3 Rocket 3.3 21:34:15 10° W 21:39:12 79° NNW 21:43:15 15° ENE
Meteor 1-24 Rocket 3.9 21:35:05 18° S 21:39:40 66° E 21:45:39 10° NNE
Cosmos 1269 Rocket 3.9 21:36:29 12° S 21:41:19 72° ESE 21:46:37 10° NNE
Cosmos-2242 3.8 21:37:58 10° NNE 21:42:00 35° E 21:42:44 33° ESE
Cosmos 1437 4.1 21:39:31 10° NNE 21:41:49 26° ENE 21:41:49 26° ENE
DMSP B5D2-2 4.2 21:38:59 10° NNE 21:44:05 51° E 21:46:13 32° SSE
Resurs 01 Rocket 3.6 21:40:51 10° SSW 21:44:25 24° W 21:48:01 10° NW
Cosmos 1844 Rocket 2.7 21:40:46 16° S 21:45:16 61° ESE 21:50:51 10° NNE
Meteor 2-5 Rocket 4.1 21:39:48 10° SSW 21:45:42 70° W 21:51:39 10° N
Cosmos 1953 Rocket 3.5 21:47:01 26° S 21:49:25 84° W 21:53:48 10° N
SL-08 RB Rocket 3.7 21:48:10 37° SSE 21:50:00 81° ENE 21:54:41 10° N
MetOp-A 4.1 21:48:11 28° S 21:51:08 82° WSW 21:56:31 10° NNW
Cosmos 1758 Rocket 4.2 21:51:45 16° SSW 21:55:13 56° W 21:59:35 10° N
Cosmos 1932 4.4 21:51:06 10° NNW 21:57:18 75° ENE 21:59:48 38° SE
Cosmos 494 Rocket 4.0 21:58:53 41° SSE 22:00:28 59° ESE 22:05:38 10° NNE
USA 245 4.4 21:59:22 37° SSE 22:01:52 78° ENE 22:08:16 10° N
Cosmos 1908 4.1 21:59:37 10° NNE 22:02:47 36° ENE 22:02:47 36° ENE
Helios 1A 3.5 22:03:30 42° E 22:03:38 42° ENE 22:07:35 10° N
Terra 3.1 22:06:06 25° ENE 22:06:22 25° ENE 22:10:12 10° NNE
Cosmos 1417 Rocket 4.4 22:07:01 36° S 22:09:47 73° E 22:16:06 10° N
Cosmos 1315 Rocket 4.4 22:07:59 14° SW 22:10:58 32° WNW 22:14:39 10° NNW
ATLAS 3B R/B 4.1 22:08:07 10° N 22:13:25 25° NE 22:16:10 19° E
Cosmos 2251 Rocket 4.2 22:14:09 36° E 22:14:09 36° E 22:18:28 10° NE
Centaur D-1A AC-35 4.1 22:19:00 10° WSW 22:19:56 15° SW 22:19:56 15° SW
Helios 1B rocket 2.6 22:21:57 10° NNE 22:25:30 64° NE 22:25:30 64° NE
ERS-1 Rocket 3.4 22:26:48 43° SSW 22:28:05 55° W 22:33:03 10° NNW
Cosmos 1340 4.0 22:26:07 10° N 22:28:30 31° NE 22:28:30 31° NE
SPOT 5 2.8 22:29:16 69° S 22:29:53 87° WSW 22:35:04 10° NNW
Cosmos 1745 Rocket 4.1 22:24:18 10° N 22:30:30 56° E 22:31:27 51° ESE
ATLAS 2AS CENTAUR R/B 3.5 22:23:03 10° SW 22:30:37 59° WNW 22:38:37 10° NNE
Cosmos 2221 4.4 22:27:54 10° NNE 22:30:02 19° NE 22:30:02 19° NE
OAO 3 Copernicus 4.1 22:27:28 10° WNW 22:32:33 89° S 22:32:45 83° ESE
Cosmos 1674 3.7 22:35:38 40° W 22:35:43 40° W 22:39:21 10° N
CZ-2C R/B 3.4 22:31:57 10° NNE 22:36:06 37° ENE 22:36:06 37° ENE
Cosmos 921 Rocket 3.1 22:34:32 10° NNW 22:38:39 74° N 22:38:39 74° N
Meteor 1-21 Rocket 4.2 22:38:37 66° SE 22:39:17 73° E 22:45:07 10° NNE
SL-08 R/B 4.3 22:33:49 10° N 22:39:59 87° E 22:41:10 61° S
Lacrosse 5 4.2 22:37:12 10° W 22:41:15 24° NW 22:45:18 10° NNE
CARTOSAT-1 4.0 22:50:26 60° N 22:50:26 60° N 22:53:59 10° NNW
S3M 4.2 22:49:12 43° SSW 22:51:15 66° W 22:57:37 10° N
Cosmos 2278 Rocket 2.1 23:02:13 83° NE 23:02:13 83° NE 23:07:42 10° NNE
Meteor 2-13 Rocket 4.3 22:57:55 10° N 23:04:01 86° W 23:04:23 79° SSW
Cosmos 1709 Rocket 4.3 22:58:14 10° N 23:04:06 50° ENE 23:04:06 50° ENE
SPOT 1/Viking Rocket 4.4 23:05:10 38° WSW 23:05:27 39° W 23:10:15 10° NNW
Nimbus 7 Rocket 4.4 22:59:33 10° N 23:05:34 78° WNW 23:06:25 65° SW
H-2A R/B 4.2 23:04:20 14° WSW 23:06:14 17° W 23:09:33 10° NW
NOSS 3-4 (A) 3.3 23:07:37 84° S 23:07:50 88° ESE 23:14:10 10° NNE
NOSS 3-4 (C) 3.2 23:07:47 85° SSE 23:07:55 87° ESE 23:14:15 10° NNE
Cosmos 1726 4.1 23:05:20 10° NNW 23:07:31 27° NW 23:07:31 27° NW
Cosmos 1461 4.3 23:10:42 38° NNE 23:10:42 38° NNE 23:13:39 10° NNE
COSMOS 2406 3.2 23:07:12 10° NNW 23:12:43 79° WNW 23:12:43 79° WNW
OAO 3 Rocket 4.4 23:18:02 10° W 23:21:04 37° WNW 23:21:04 37° WNW
Cosmos 2315 Rocket 3.9 23:26:33 86° WNW 23:26:33 86° WNW 23:32:53 10° N
ADEOS Rocket 4.1 23:26:01 10° NNE 23:30:03 32° ENE 23:30:03 32° ENE
USA 234 4.3 23:30:08 10° NE 23:33:36 30° ENE 23:33:36 30° ENE
CZ-2C R/B 4.1 23:41:03 43° W 23:41:03 43° W 23:46:16 10° NNW
Cosmos 2297 4.5 23:43:24 44° NE 23:43:24 44° NE 23:47:18 10° NNE
Terra 3.6 23:44:59 25° WNW 23:44:59 25° WNW 23:47:58 10° NW
Mayak 1.2 23:43:10 10° NNE 23:44:19 18° NNE 23:44:19 18° NNE
ATLAS 5 CENTAUR R/B 3.3 23:55:30 32° N 23:55:30 32° N 23:58:19 10° NNE
